Schneifelwetter: Wetterstation Hallschlag, 537 m . NN
Wetterdaten: Donnerstag, 08.04.2010
Datum Zeit Temp. A. Feuchte A. Luftdruck Regen Wind Richtung Richtung Sonnenschein Helligkeit T Regen Taupunkt Windchill
08.04.2010 00:10 8,0 C 78 % 1018 hPa 0,0 l/m 0,0 km/h (0 Bft) S-SW 200 0 min 0 lux 0,00 min 4,4 C 8,0 C
08.04.2010 00:25 8,0 C 79 % 1018 hPa 0,0 l/m 0,3 km/h (0 Bft) S-SW 205 0 min 0 lux 0,00 min 4,6 C 8,0 C
08.04.2010 00:40 8,0 C 79 % 1018 hPa 0,0 l/m 5,3 km/h (1 Bft) W-SW22.5 240 0 min 0 lux 0,00 min 4,6 C 8,0 C
08.04.2010 00:55 7,8 C 80 % 1018 hPa 0,0 l/m 0,0 km/h (0 Bft) W-SW 250 0 min 0 lux 0,00 min 4,6 C 7,8 C
08.04.2010 01:10 7,8 C 81 % 1018 hPa 0,0 l/m 0,3 km/h (0 Bft) W-SW 250 0 min 0 lux 0,00 min 4,7 C 7,8 C
08.04.2010 01:25 7,8 C 83 % 1018 hPa 0,0 l/m 7,1 km/h (2 Bft) W-SW 245 0 min 0 lux 0,00 min 5,1 C 7,2 C
08.04.2010 01:40 7,9 C 83 % 1018 hPa 0,0 l/m 4,2 km/h (1 Bft) W-SW 245 0 min 0 lux 0,00 min 5,2 C 7,9 C
08.04.2010 01:55 8,0 C 84 % 1018 hPa 0,0 l/m 9,8 km/h (2 Bft) W-SW22.5 255 0 min 0 lux 0,00 min 5,5 C 5,5 C
08.04.2010 02:10 8,2 C 83 % 1018 hPa 0,0 l/m 7,5 km/h (2 Bft) W 270 0 min 0 lux 0,00 min 5,5 C 7,3 C
08.04.2010 02:25 8,3 C 83 % 1018 hPa 0,0 l/m 7,7 km/h (2 Bft) W22.5 270 0 min 0 lux 0,00 min 5,6 C 7,3 C
08.04.2010 02:40 8,3 C 83 % 1018 hPa 0,0 l/m 4,9 km/h (1 Bft) W 275 0 min 0 lux 0,00 min 5,6 C 8,3 C
08.04.2010 02:55 8,4 C 83 % 1018 hPa 0,0 l/m 6,2 km/h (2 Bft) W 275 0 min 0 lux 0,00 min 5,7 C 8,4 C
08.04.2010 03:10 8,4 C 82 % 1018 hPa 0,0 l/m 6,8 km/h (2 Bft) W 275 0 min 0 lux 0,00 min 5,5 C 8,1 C
08.04.2010 03:25 8,5 C 82 % 1018 hPa 0,0 l/m 11,6 km/h (2 Bft) N-NW22.5 335 0 min 0 lux 0,00 min 5,6 C 5,0 C
08.04.2010 03:40 8,6 C 81 % 1018 hPa 0,0 l/m 13,7 km/h (3 Bft) N22.5 350 0 min 0 lux 0,00 min 5,5 C 4,0 C
08.04.2010 03:55 8,6 C 80 % 1018 hPa 0,0 l/m 12,1 km/h (2 Bft) N-NW45 345 0 min 0 lux 0,00 min 5,3 C 4,8 C
08.04.2010 04:10 8,5 C 80 % 1018 hPa 0,0 l/m 9,2 km/h (2 Bft) N22.5 350 0 min 0 lux 0,00 min 5,3 C 6,4 C
08.04.2010 04:25 8,4 C 80 % 1018 hPa 0,0 l/m 11,7 km/h (2 Bft) N22.5 360 0 min 0 lux 0,00 min 5,2 C 4,8 C
08.04.2010 04:40 8,3 C 81 % 1019 hPa 0,0 l/m 7,0 km/h (2 Bft) NW22.5 325 0 min 0 lux 0,00 min 5,2 C 7,8 C
08.04.2010 04:55 8,4 C 81 % 1019 hPa 0,0 l/m 14,1 km/h (3 Bft) N-NW67.5 345 0 min 0 lux 0,00 min 5,3 C 3,6 C
08.04.2010 05:10 8,3 C 82 % 1019 hPa 0,0 l/m 12,1 km/h (2 Bft) NW22.5 325 0 min 0 lux 0,00 min 5,4 C 4,5 C
08.04.2010 05:25 8,2 C 82 % 1019 hPa 0,0 l/m 9,2 km/h (2 Bft) NW22.5 320 0 min 0 lux 0,00 min 5,3 C 6,1 C
08.04.2010 05:40 8,2 C 82 % 1019 hPa 0,0 l/m 10,4 km/h (2 Bft) N-NW22.5 340 0 min 0 lux 0,00 min 5,3 C 5,4 C
08.04.2010 05:55 8,1 C 83 % 1019 hPa 0,0 l/m 4,8 km/h (1 Bft) NW 310 0 min 0 lux 0,00 min 5,4 C 8,1 C
08.04.2010 06:10 8,1 C 84 % 1019 hPa 0,0 l/m 10,1 km/h (2 Bft) N22.5 5 0 min 0 lux 0,00 min 5,6 C 5,4 C
08.04.2010 06:25 8,1 C 85 % 1019 hPa 0,0 l/m 15,5 km/h (3 Bft) N-NO22.5 15 0 min 0 lux 0,00 min 5,7 C 2,6 C
08.04.2010 06:40 8,0 C 85 % 1020 hPa 0,0 l/m 12,5 km/h (3 Bft) N22.5 360 0 min 0 lux 0,00 min 5,6 C 3,9 C
08.04.2010 06:55 7,9 C 86 % 1020 hPa 0,0 l/m 11,9 km/h (2 Bft) N 360 0 min 111 lux 0,00 min 5,7 C 4,2 C
08.04.2010 07:10 7,9 C 88 % 1020 hPa 0,0 l/m 14,1 km/h (3 Bft) N-NO45 25 0 min 346 lux 0,00 min 6,0 C 3,0 C
08.04.2010 07:25 7,8 C 89 % 1020 hPa 0,0 l/m 19,0 km/h (3 Bft) N-NO22.5 15 0 min 892 lux 0,00 min 6,1 C 0,8 C
08.04.2010 07:40 7,8 C 89 % 1020 hPa 0,0 l/m 14,7 km/h (3 Bft) N22.5 5 0 min 1,17 klux 0,00 min 6,1 C 2,6 C
08.04.2010 08:01 7,8 C 89 % 1020 hPa 0,0 l/m 14,1 km/h (3 Bft) N67.5 360 0 min 1,62 klux 0,00 min 6,1 C 2,9 C
08.04.2010 08:17 7,9 C 90 % 1020 hPa 0,0 l/m 10,1 km/h (2 Bft) N22.5 360 0 min 2,72 klux 0,00 min 6,4 C 5,2 C
08.04.2010 08:31 7,8 C 91 % 1020 hPa 0,0 l/m 15,1 km/h (3 Bft) N-NO45 15 0 min 4,54 klux 0,00 min 6,4 C 2,4 C
08.04.2010 08:46 7,9 C 92 % 1021 hPa 0,0 l/m 20,8 km/h (4 Bft) N45 5 0 min 4,75 klux 0,00 min 6,7 C 0,3 C
08.04.2010 09:01 8,0 C 92 % 1021 hPa 0,0 l/m 23,0 km/h (4 Bft) N-NO22.5 25 0 min 5,46 klux 0,00 min 6,8 C -0,3 C
08.04.2010 09:16 8,0 C 92 % 1021 hPa 0,0 l/m 16,3 km/h (3 Bft) N-NO22.5 30 0 min 6,11 klux 0,00 min 6,8 C 2,1 C
08.04.2010 09:31 8,2 C 92 % 1021 hPa 0,0 l/m 15,0 km/h (3 Bft) N-NO22.5 15 0 min 6,93 klux 0,00 min 7,0 C 3,0 C
08.04.2010 09:46 8,3 C 92 % 1021 hPa 0,0 l/m 19,5 km/h (3 Bft) N45 360 0 min 8,18 klux 0,00 min 7,1 C 1,3 C
08.04.2010 10:02 8,5 C 91 % 1021 hPa 0,0 l/m 14,7 km/h (3 Bft) N-NO22.5 25 0 min 9,8 klux 0,00 min 7,1 C 3,5 C
08.04.2010 10:16 8,5 C 91 % 1022 hPa 0,0 l/m 18,2 km/h (3 Bft) N22.5 5 0 min 10,5 klux 0,00 min 7,1 C 2,0 C
08.04.2010 10:31 8,6 C 91 % 1022 hPa 0,0 l/m 16,6 km/h (3 Bft) N22.5 5 0 min 10,4 klux 0,00 min 7,2 C 2,8 C
08.04.2010 10:46 8,5 C 91 % 1022 hPa 0,0 l/m 16,3 km/h (3 Bft) N22.5 360 0 min 9,5 klux 0,00 min 7,1 C 2,8 C
08.04.2010 11:01 8,4 C 92 % 1022 hPa 0,3 l/m 18,0 km/h (3 Bft) N67.5 5 0 min 6,95 klux 15,00 min 7,2 C 2,0 C
08.04.2010 11:16 8,4 C 92 % 1022 hPa 0,0 l/m 16,6 km/h (3 Bft) N22.5 10 0 min 9,8 klux 0,00 min 7,2 C 2,5 C
08.04.2010 11:31 8,8 C 92 % 1022 hPa 0,0 l/m 13,6 km/h (3 Bft) N22.5 360 0 min 18,4 klux 0,00 min 7,6 C 4,3 C
08.04.2010 11:47 9,2 C 91 % 1022 hPa 0,0 l/m 14,5 km/h (3 Bft) N-NO22.5 15 0 min 19,1 klux 0,00 min 7,8 C 4,4 C
08.04.2010 12:01 9,4 C 90 % 1022 hPa 0,0 l/m 18,5 km/h (3 Bft) N-NO22.5 15 0 min 21,2 klux 0,00 min 7,8 C 3,0 C
08.04.2010 12:16 9,6 C 89 % 1022 hPa 0,0 l/m 15,8 km/h (3 Bft) N-NO22.5 25 0 min 21,3 klux 0,00 min 7,9 C 4,3 C
08.04.2010 12:31 9,5 C 89 % 1022 hPa 0,0 l/m 16,1 km/h (3 Bft) N22.5 10 0 min 14,7 klux 0,00 min 7,8 C 4,1 C
08.04.2010 12:46 9,3 C 88 % 1023 hPa 0,0 l/m 18,3 km/h (3 Bft) N-NO67.5 15 0 min 13,5 klux 0,00 min 7,4 C 3,0 C
08.04.2010 13:01 9,2 C 89 % 1023 hPa 0,0 l/m 15,6 km/h (3 Bft) N-NO22.5 25 0 min 13,4 klux 0,00 min 7,5 C 3,9 C
08.04.2010 13:16 9,3 C 89 % 1023 hPa 0,0 l/m 14,7 km/h (3 Bft) N22.5 5 0 min 18,1 klux 0,00 min 7,6 C 4,4 C
08.04.2010 13:32 9,2 C 89 % 1023 hPa 0,0 l/m 15,9 km/h (3 Bft) N22.5 10 0 min 13,6 klux 0,00 min 7,5 C 3,8 C
08.04.2010 13:46 9,1 C 89 % 1023 hPa 0,0 l/m 15,3 km/h (3 Bft) N67.5 10 0 min 9,9 klux 0,00 min 7,4 C 3,9 C
08.04.2010 14:01 9,0 C 90 % 1023 hPa 0,0 l/m 12,6 km/h (3 Bft) N22.5 355 0 min 10,9 klux 0,00 min 7,4 C 5,1 C
08.04.2010 14:16 9,0 C 90 % 1023 hPa 0,0 l/m 16,6 km/h (3 Bft) N22.5 360 0 min 9,8 klux 0,00 min 7,4 C 3,3 C
08.04.2010 14:31 9,0 C 90 % 1023 hPa 0,0 l/m 16,0 km/h (3 Bft) N22.5 5 0 min 11,5 klux 0,00 min 7,4 C 3,5 C
08.04.2010 14:46 9,2 C 90 % 1023 hPa 0,0 l/m 19,1 km/h (3 Bft) N-NO22.5 25 0 min 18,4 klux 0,00 min 7,6 C 2,6 C
08.04.2010 15:01 9,6 C 90 % 1023 hPa 0,0 l/m 15,6 km/h (3 Bft) N22.5 10 0 min 25,8 klux 0,00 min 8,0 C 4,4 C
08.04.2010 15:17 9,6 C 89 % 1024 hPa 0,0 l/m 15,4 km/h (3 Bft) N-NO22.5 15 0 min 13,0 klux 0,00 min 7,9 C 4,5 C
08.04.2010 15:31 8,9 C 90 % 1024 hPa 0,0 l/m 16,9 km/h (3 Bft) N-NW45 330 0 min 6,11 klux 0,00 min 7,4 C 3,0 C
08.04.2010 15:46 8,6 C 91 % 1024 hPa 0,0 l/m 12,4 km/h (3 Bft) N-NW45 335 0 min 11,2 klux 0,00 min 7,2 C 4,7 C
08.04.2010 16:01 8,6 C 91 % 1024 hPa 0,0 l/m 11,9 km/h (2 Bft) N-NW22.5 330 0 min 11,0 klux 0,00 min 7,2 C 5,0 C
08.04.2010 16:16 8,5 C 91 % 1024 hPa 0,0 l/m 14,8 km/h (3 Bft) N67.5 350 0 min 12,5 klux 0,00 min 7,1 C 3,4 C
08.04.2010 16:31 8,5 C 91 % 1024 hPa 0,0 l/m 16,7 km/h (3 Bft) N45 5 0 min 12,4 klux 0,00 min 7,1 C 2,6 C
08.04.2010 16:46 8,2 C 92 % 1024 hPa 0,0 l/m 14,0 km/h (3 Bft) N45 355 0 min 4,77 klux 0,00 min 7,0 C 3,4 C
08.04.2010 17:02 8,1 C 92 % 1024 hPa 0,0 l/m 16,3 km/h (3 Bft) NW22.5 315 0 min 5,13 klux 0,00 min 6,9 C 2,3 C
08.04.2010 17:16 7,9 C 93 % 1025 hPa 0,0 l/m 12,1 km/h (2 Bft) N45 5 0 min 3,36 klux 0,00 min 6,8 C 4,0 C
08.04.2010 17:31 7,7 C 93 % 1025 hPa 0,0 l/m 21,6 km/h (4 Bft) N45 360 0 min 7,22 klux 0,00 min 6,6 C -0,2 C
08.04.2010 17:46 8,0 C 93 % 1025 hPa 0,0 l/m 10,4 km/h (2 Bft) N-NW22.5 330 0 min 10,4 klux 0,00 min 6,9 C 5,1 C
08.04.2010 18:01 8,1 C 93 % 1025 hPa 0,0 l/m 16,0 km/h (3 Bft) N67.5 360 0 min 9,3 klux 0,00 min 7,0 C 2,4 C
08.04.2010 18:16 8,2 C 93 % 1025 hPa 0,0 l/m 16,6 km/h (3 Bft) N22.5 355 0 min 10,7 klux 0,00 min 7,1 C 2,3 C
08.04.2010 18:31 8,0 C 92 % 1025 hPa 0,0 l/m 13,9 km/h (3 Bft) N-NW67.5 335 0 min 8,03 klux 0,00 min 6,8 C 3,2 C
08.04.2010 18:47 8,0 C 92 % 1025 hPa 0,0 l/m 13,1 km/h (3 Bft) N-NW22.5 340 0 min 6,79 klux 0,00 min 6,8 C 3,6 C
08.04.2010 19:01 7,9 C 93 % 1025 hPa 0,0 l/m 16,0 km/h (3 Bft) N-NO45 15 0 min 4,60 klux 0,00 min 6,8 C 2,1 C
08.04.2010 19:16 7,5 C 92 % 1025 hPa 0,0 l/m 22,1 km/h (4 Bft) N67.5 360 0 min 2,70 klux 0,00 min 6,3 C -0,7 C
08.04.2010 19:31 7,2 C 93 % 1026 hPa 0,0 l/m 20,6 km/h (4 Bft) N67.5 10 0 min 3,65 klux 0,00 min 6,1 C -0,5 C
08.04.2010 19:46 7,1 C 94 % 1026 hPa 0,0 l/m 19,3 km/h (3 Bft) N-NW22.5 345 0 min 2,59 klux 0,00 min 6,2 C -0,2 C
08.04.2010 20:01 6,9 C 94 % 1026 hPa 0,0 l/m 16,1 km/h (3 Bft) N45 350 0 min 2,37 klux 0,00 min 6,0 C 0,9 C
08.04.2010 20:17 6,8 C 95 % 1026 hPa 0,0 l/m 18,3 km/h (3 Bft) N22.5 360 0 min 777 lux 0,00 min 6,1 C -0,2 C
08.04.2010 20:16 6,8 C 95 % 1026 hPa 0,0 l/m 18,3 km/h (3 Bft) N22.5 360 0 min 777 lux 0,00 min 6,1 C -0,2 C
08.04.2010 20:31 6,7 C 96 % 1026 hPa 0,0 l/m 19,0 km/h (3 Bft) N22.5 360 0 min 110 lux 0,00 min 6,1 C -0,6 C
08.04.2010 20:46 6,6 C 96 % 1027 hPa 0,0 l/m 15,7 km/h (3 Bft) N-NW45 340 0 min 18 lux 0,00 min 6,0 C 0,7 C
08.04.2010 21:01 6,5 C 96 % 1027 hPa 0,0 l/m 18,2 km/h (3 Bft) N45 350 0 min 0 lux 0,00 min 5,9 C -0,5 C
08.04.2010 21:16 6,5 C 97 % 1027 hPa 0,0 l/m 19,3 km/h (3 Bft) N45 5 0 min 0 lux 0,00 min 6,1 C -1,0 C
08.04.2010 21:31 6,5 C 97 % 1027 hPa 0,0 l/m 28,8 km/h (4 Bft) N22.5 10 0 min 0 lux 0,00 min 6,1 C -4,0 C
08.04.2010 21:47 6,4 C 98 % 1027 hPa 0,0 l/m 21,2 km/h (4 Bft) N22.5 5 0 min 0 lux 0,00 min 6,1 C -1,8 C
08.04.2010 22:01 6,2 C 98 % 1027 hPa 0,0 l/m 23,3 km/h (4 Bft) N67.5 5 0 min 0 lux 0,00 min 5,9 C -2,8 C
08.04.2010 22:16 6,1 C 98 % 1027 hPa 0,0 l/m 19,0 km/h (3 Bft) N67.5 360 0 min 0 lux 0,00 min 5,8 C -1,4 C
08.04.2010 22:31 6,0 C 98 % 1027 hPa 0,0 l/m 20,5 km/h (4 Bft) N-NO67.5 20 0 min 0 lux 0,00 min 5,7 C -2,1 C
08.04.2010 22:46 5,9 C 97 % 1027 hPa 0,3 l/m 28,6 km/h (4 Bft) N22.5 360 0 min 0 lux 15,00 min 5,5 C -4,7 C
08.04.2010 23:01 5,6 C 95 % 1027 hPa 0,0 l/m 15,3 km/h (3 Bft) N22.5 5 0 min 0 lux 0,00 min 4,9 C -0,3 C
08.04.2010 23:17 5,2 C 95 % 1028 hPa 0,0 l/m 11,3 km/h (2 Bft) N-NO22.5 15 0 min 0 lux 0,00 min 4,5 C 1,4 C
08.04.2010 23:31 4,9 C 95 % 1028 hPa 0,0 l/m 14,8 km/h (3 Bft) N-NO67.5 15 0 min 0 lux 0,00 min 4,2 C -0,9 C
08.04.2010 23:46 4,9 C 96 % 1028 hPa 0,0 l/m 12,2 km/h (2 Bft) N45 5 0 min 0 lux 0,00 min 4,3 C 0,5 C
_ Min-Zeit 23:31 00:10 00:10 - 00:10 - - - - - 23:31 22:46
Minimum _ 4,9 C 78 % 1018 hPa - 0,0 km/h (0 Bft) - - - - - 4,2 C -4,7 C
_ Max-Zeit 12:16 21:47 23:17 11:01 21:31 - - 00:10 15:01 11:01 15:01 02:55
Maximum _ 9,6 C 98 % 1028 hPa 0,3 l/m 28,8 km/h
N (4 Bft)
- - 0 min 25,8 klux 15,00 min 8,0 C 8,4 C
Durchschnitt _ 8,0 C 89 % 1022 hPa #0,6 l/m 14,2 km/h (3 Bft) N - #0 min. 5,09 klux #30 min. 6,3 C 3,2 C